Regional Weather Roundup
Issued by NWS

Home | Current Version | Previous Version | Graphics & Text | Print | Product List | Glossary On
Versions: 1 2 3 4 5 6 7 8 9 10 11 12 13 14 15 16 17 18 19 20 21 22 23 24 25 26 27 28 29 30 31 32 33 34 35 36 37 38 39 40 41 42 43 44 45 46 47 48 49 50
005
ASUS43 KLMK 080802
RWRKY
KENTUCKY REGIONAL WEATHER ROUNDUP
NATIONAL WEATHER SERVICE LOUISVILLE KY
300 AM EST THU DEC 08 2016

NOTE "FAIR" INDICATES FEW OR NO CLOUDS BELOW 12,000 FEET
WITH NO SIGNIFICANT WEATHER AND/OR OBSTRUCTIONS TO VISIBILITY.

KYZ001>023-026-027-061>063-070>075-080900-
WESTERN AND SOUTH CENTRAL KENTUCKY

CITY           SKY/WX    TMP DP  RH WIND       PRES   REMARKS
PADUCAH        CLOUDY    35  21  56 NW5       30.33R WCI  31
HENDERSON      PTCLDY    32  19  59 NW8       30.31R WCI  25
OWENSBORO      MOCLDY    33  21  61 NW15      30.30R WCI  23
HOPKINSVILLE   CLOUDY    35  21  57 VRB5      30.29R WCI  31
BOWLING GREEN  CLOUDY    36  24  62 NW9       30.28R WCI  29
GLASGOW        NOT AVBL
$$

KYZ024-025-028>034-038-045-046-053-080900-
NORTH CENTRAL KENTUCKY

CITY           SKY/WX    TMP DP  RH WIND       PRES   REMARKS
LOUISVILLE/SDF CLOUDY    33  19  56 NW8       30.24R WCI  26
LOUISVILLE/LOU MOCLDY    33  21  61 NW12      30.25R WCI  24
FORT KNOX      CLOUDY    30  21  67 W3        30.22R
$$

KYZ035>037-039>044-047>052-055>060-089>105-080900-
NORTHEAST KENTUCKY

CITY           SKY/WX    TMP DP  RH WIND       PRES   REMARKS
LEXINGTON      CLOUDY    33  22  63 W8        30.19R WCI  26
COVINGTON      CLOUDY    29  21  72 W9        30.17R WCI  20
FRANKFORT      PTCLDY    32  22  66 W6        30.20R WCI  26
$$

KYZ054-064>069-076>088-106>120-080900-
SOUTHEAST KENTUCKY

CITY           SKY/WX    TMP DP  RH WIND       PRES   REMARKS
JACKSON        CLOUDY    33  27  78 CALM      30.14S
LONDON         CLOUDY    34  24  67 W3        30.17R
SOMERSET       CLOUDY    34  27  75 W3        30.22R
MIDDLESBORO    CLOUDY    37  27  66 NE5       30.17R WCI  34
MONTICELLO     CLOUDY    35  27  72 W6        30.23R WCI  30
$$





USA.gov is the U.S. government's official web portal to all federal, state and local government web resources and services.